IRIDIUM 106 1 41917C 17003A 22176.81530265 .00003826 00000+0 13680-2 0 1766 2 41917 86.3966 335.4399 0002300 86.3251 23.7031 14.34210192 12 IRIDIUM 103 1 41918C 17003B 22176.80284859 .00003602 00000+0 12881-2 0 1765 2 41918 86.3965 335.3496 0002538 97.1553 14.0663 14.34209364 10 IRIDIUM 109 1 41919C 17003C 22176.80906676 .00003693 00000+0 13203-2 0 1763 2 41919 86.3967 335.3823 0002355 94.4608 16.1853 14.34216219 16 IRIDIUM 102 1 41920C 17003D 22176.84646174 .00004556 00000+0 16290-2 0 1761 2 41920 86.3965 335.3212 0002185 100.7385 6.3898 14.34214671 12 IRIDIUM 105 1 41921C 17003E 22176.84547948 .00002787 00000+0 99645-3 0 1761 2 41921 86.3966 303.7242 0002471 88.7753 164.4520 14.34220670 12 IRIDIUM 104 1 41922C 17003F 22176.85892126 .00004010 00000+0 14340-2 0 1763 2 41922 86.3966 335.3368 0002497 88.2223 17.7827 14.34210458 11 IRIDIUM 114 1 41923C 17003G 22176.86514082 .00003729 00000+0 13334-2 0 1765 2 41923 86.3966 335.3219 0002062 90.1029 15.3179 14.34210205 15 IRIDIUM 108 1 41924C 17003H 22176.85237715 .00002512 00000+0 89831-3 0 1765 2 41924 86.3961 303.6935 0002260 88.7784 164.8087 14.34211882 15 IRIDIUM 112 1 41925C 17003J 22176.85266465 .00004295 00000+0 15359-2 0 1763 2 41925 86.3962 335.2372 0002023 97.0411 9.4228 14.34209961 16 IRIDIUM 111 1 41926C 17003K 22176.84021038 .00004618 00000+0 16514-2 0 1761 2 41926 86.3964 335.2814 0002564 95.9771 11.6463 14.34209563 10 IRIDIUM 113 1 42803C 17039A 22176.81860194 .00000219 00000+0 78416-4 0 1760 2 42803 86.3995 209.0245 0002613 93.1780 6.4005 14.34211957 14 IRIDIUM 123 1 42804C 17039B 22176.79750264 -.00001808 00000+0 -64654-3 0 1769 2 42804 86.3987 240.5392 0002544 100.2238 36.4020 14.34216788 17 IRIDIUM 120 1 42805C 17039C 22176.81224730 -.00000220 00000+0 -78703-4 0 1765 2 42805 86.3984 208.9980 0002673 92.5727 6.8222 14.34219890 17 IRIDIUM 115 1 42806C 17039D 22176.86451582 .00001378 00000+0 41031-3 0 1764 2 42806 86.4523 208.8890 0003728 113.5289 345.9787 14.43265177 18 IRIDIUM 118 1 42807C 17039E 22176.82912538 -.00002375 00000+0 -84920-3 0 1768 2 42807 86.3986 240.5303 0002288 102.2866 33.8868 14.34215522 11 IRIDIUM 117 1 42808C 17039F 22176.84660434 -.00001368 00000+0 -48913-3 0 1769 2 42808 86.3985 240.4936 0002520 91.5284 36.6407 14.34214817 11 IRIDIUM 126 1 42809C 17039G 22176.80385830 -.00002174 00000+0 -77751-3 0 1768 2 42809 86.3987 240.5396 0002549 96.2030 40.5348 14.34215764 17 IRIDIUM 124 1 42810C 17039H 22176.84004755 .00003190 00000+0 94968-3 0 1764 2 42810 86.4508 177.3496 0002430 85.7391 229.7502 14.43279117 14 IRIDIUM 128 1 42811C 17039J 22176.86420681 -.00001551 00000+0 -55439-3 0 1768 2 42811 86.3972 272.0489 0002692 99.5531 36.2866 14.34223956 17 IRIDIUM 121 1 42812C 17039K 22176.82278080 -.00002564 00000+0 -91686-3 0 1768 2 42812 86.3987 240.5509 0002578 98.1160 38.0431 14.34223546 16 IRIDIUM 133 1 42955C 17061A 22176.83174950 -.00001550 00000+0 -55423-3 0 1766 2 42955 86.3975 272.1451 0002684 98.6888 66.1078 14.34225702 13 IRIDIUM 100 1 42956C 17061B 22176.82558111 -.00001057 00000+0 -37790-3 0 1760 2 42956 86.3973 272.1008 0002444 95.3097 70.3495 14.34223335 10 IRIDIUM 122 1 42957C 17061C 22176.85780611 -.00001712 00000+0 -61193-3 0 1768 2 42957 86.3972 272.0842 0002679 98.5496 36.9863 14.34223658 18 IRIDIUM 129 1 42958C 17061D 22176.81936734 -.00000492 00000+0 -17577-3 0 1765 2 42958 86.3974 272.1518 0002655 99.8135 66.5892 14.34221318 12 IRIDIUM 119 1 42959C 17061E 22176.84333778 -.00001384 00000+0 -49482-3 0 1769 2 42959 86.3973 272.1301 0002544 99.8200 353.8919 14.34214770 18 IRIDIUM 107 1 42960C 17061F 22176.86202660 -.00000980 00000+0 -35061-3 0 1767 2 42960 86.3974 272.1346 0002421 96.5107 355.4637 14.34214014 10 IRIDIUM 132 1 42961C 17061G 22176.86828090 -.00001004 00000+0 -35889-3 0 1765 2 42961 86.3974 272.1203 0002522 92.3267 359.0735 14.34222973 18 IRIDIUM 136 1 42962C 17061H 22176.83085794 -.00001403 00000+0 -50175-3 0 1767 2 42962 86.3974 272.1370 0002549 101.5993 353.1032 14.34216270 10 IRIDIUM 139 1 42963C 17061J 22176.84895610 -.00002146 00000+0 -76743-3 0 1769 2 42963 86.3975 272.1684 0002554 94.7947 60.6358 14.34215581 13 IRIDIUM 125 1 42964C 17061K 22176.82463156 -.00001160 00000+0 -41481-3 0 1760 2 42964 86.3977 272.2131 0002605 95.0592 0.2357 14.34216408 19 IRIDIUM 135 1 43070C 17083A 22176.86961423 .00001526 00000+0 54577-3 0 1761 2 43070 86.3989 208.9356 0002198 88.9716 11.9621 14.34211985 10 IRIDIUM 138 1 43071C 17083B 22176.82498351 .00000621 00000+0 22221-3 0 1769 2 43071 86.3978 208.7620 0002513 94.9568 4.8270 14.34211282 15 IRIDIUM 116 1 43072C 17083C 22176.86322319 .00001259 00000+0 45023-3 0 1767 2 43072 86.3988 208.9412 0002213 97.9594 2.7944 14.34210737 16 IRIDIUM 130 1 43073C 17083D 22176.83135391 .00000859 00000+0 30700-3 0 1768 2 43073 86.3997 209.0877 0002488 97.4446 2.4299 14.34220417 15 IRIDIUM 151 1 43074C 17083E 22176.80587997 -.00000699 00000+0 -25009-3 0 1769 2 43074 86.3990 208.9897 0002256 98.8417 0.5045 14.34222025 10 IRIDIUM 134 1 43075C 17083F 22176.84409743 .00001005 00000+0 35937-3 0 1767 2 43075 86.3992 208.9615 0002490 89.1165 11.0683 14.34212458 18 IRIDIUM 137 1 43076C 17083G 22176.85684736 .00001103 00000+0 39457-3 0 1766 2 43076 86.3993 209.0216 0002235 99.3338 1.1643 14.34212715 13 IRIDIUM 141 1 43077C 17083H 22176.85046513 .00001020 00000+0 36469-3 0 1760 2 43077 86.3988 208.9356 0002527 98.1196 2.3408 14.34209282 11 IRIDIUM 153 1 43078C 17083J 22176.73255345 .00000207 00000+0 73987-4 0 1766 2 43078 86.3984 177.4660 0002713 97.6735 0.9904 14.34213391 17 IRIDIUM 131 1 43079C 17083K 22176.83772198 .00000997 00000+0 35651-3 0 1769 2 43079 86.3994 209.0298 0002578 95.3197 4.6940 14.34219389 18 IRIDIUM 144 1 43249C 18030A 22176.74330382 .00000616 00000+0 22009-3 0 1767 2 43249 86.3981 177.4308 0002392 84.4222 36.8968 14.34218074 12 IRIDIUM 149 1 43250C 18030B 22176.85821028 .00003394 00000+0 12136-2 0 1768 2 43250 86.3980 177.3655 0002277 84.1340 237.4389 14.34217540 10 IRIDIUM 157 1 43251C 18030C 22176.76146028 .00000877 00000+0 31348-3 0 1769 2 43251 86.3982 177.4270 0002408 98.5330 345.6710 14.34212270 16 IRIDIUM 140 1 43252C 18030D 22176.82443809 .00002394 00000+0 85617-3 0 1768 2 43252 86.3982 177.4155 0002517 80.5247 230.4287 14.34212029 10 IRIDIUM 145 1 43253C 18030E 22176.70638309 -.00001440 00000+0 -51493-3 0 1765 2 43253 86.3982 177.4413 0001902 72.8215 54.3566 14.34219619 19 IRIDIUM 146 1 43254C 18030F 22176.86481721 .00003318 00000+0 11862-2 0 1766 2 43254 86.3982 177.3913 0002105 87.3700 235.5843 14.34218119 15 IRIDIUM 148 1 43255C 18030G 22176.72440947 -.00000669 00000+0 -23923-3 0 1767 2 43255 86.3983 177.4719 0002198 94.2866 27.7663 14.34220725 11 IRIDIUM 142 1 43256C 18030H 22176.82847554 .00003184 00000+0 11386-2 0 1766 2 43256 86.3980 177.3707 0002307 90.1967 12.5176 14.34211178 17 IRIDIUM 150 1 43257C 18030J 22176.59356778 -.00001827 00000+0 -65327-3 0 1763 2 43257 86.3983 177.5379 0002388 85.6727 48.5841 14.34224500 11 IRIDIUM 143 1 43258C 18030K 22176.71266272 -.00001341 00000+0 -47940-3 0 1769 2 43258 86.3986 177.5216 0002204 85.1117 41.7898 14.34218206 13 IRIDIUM 161 1 43478C 18047C 22176.80473723 .00004814 00000+0 14335-2 0 1769 2 43478 86.4487 335.4362 0002594 90.1238 156.6988 14.43270885 10 IRIDIUM 152 1 43479C 18047D 22176.82152046 .00003977 00000+0 14220-2 0 1766 2 43479 86.3961 335.2939 0001933 94.4594 14.9776 14.34215994 14 IRIDIUM 147 1 43480C 18047E 22176.82774478 .00004180 00000+0 14947-2 0 1760 2 43480 86.3962 335.2713 0002289 99.3614 9.4222 14.34209291 17 IRIDIUM 110 1 43481C 18047F 22176.83397151 .00004441 00000+0 15880-2 0 1768 2 43481 86.3965 335.3223 0002419 87.7992 20.4025 14.34209339 10 IRIDIUM 162 1 43482C 18047G 22176.86893882 .00005018 00000+0 14942-2 0 1763 2 43482 86.4486 335.3195 0002279 92.1367 160.6183 14.43268702 19 IRIDIUM 160 1 43569C 18061A 22176.80814131 .00003518 00000+0 12579-2 0 1766 2 43569 86.3964 303.7001 0002183 102.4430 151.9193 14.34217173 10 IRIDIUM 166 1 43570C 18061B 22176.83347406 .00002862 00000+0 10231-2 0 1761 2 43570 86.3962 303.6601 0002217 90.6368 163.5418 14.34219070 18 IRIDIUM 158 1 43571C 18061C 22176.80178448 .00003866 00000+0 13822-2 0 1761 2 43571 86.3962 303.6816 0002051 95.6683 158.6489 14.34218076 16 IRIDIUM 165 1 43572C 18061D 22176.82715819 .00002966 00000+0 10607-2 0 1761 2 43572 86.3964 303.6903 0001991 93.6077 160.7052 14.34212330 10 IRIDIUM 155 1 43573C 18061E 22176.85859904 .00001993 00000+0 71279-3 0 1761 2 43573 86.3960 303.6165 0002619 92.8367 160.0759 14.34213081 19 IRIDIUM 154 1 43574C 18061F 22176.83978435 .00002827 00000+0 10108-2 0 1761 2 43574 86.3964 303.6883 0002140 103.3089 150.6916 14.34213332 18 IRIDIUM 163 1 43575C 18061G 22176.87289860 .00000425 00000+0 15180-3 0 1761 2 43575 86.3961 303.6344 0001898 90.9384 72.1242 14.34222793 17 IRIDIUM 156 1 43576C 18061H 22176.84730554 .00001774 00000+0 63423-3 0 1761 2 43576 86.3962 303.6505 0002323 88.2800 73.6510 14.34220636 13 IRIDIUM 164 1 43577C 18061J 22176.84608263 .00002766 00000+0 98898-3 0 1769 2 43577 86.3963 303.6691 0002050 100.7774 153.0581 14.34220443 15 IRIDIUM 159 1 43578C 18061K 22176.86702544 .00000578 00000+0 20665-3 0 1765 2 43578 86.3961 303.6277 0002179 100.8249 64.6750 14.34214629 18 IRIDIUM 180 1 43922C 19002A 22176.79113976 -.00001520 00000+0 -54350-3 0 1769 2 43922 86.3986 240.5141 0001890 107.1780 29.3771 14.34215496 10 IRIDIUM 176 1 43923C 19002B 22176.84874280 -.00001849 00000+0 -29368-3 0 1763 2 43923 86.6119 240.5252 0002601 97.0525 28.8686 14.72264810 15 IRIDIUM 168 1 43924C 19002C 22176.85220267 -.00001122 00000+0 -40124-3 0 1762 2 43924 86.3988 240.5249 0002240 101.7683 22.5734 14.34214095 13 IRIDIUM 173 1 43925C 19002D 22176.84086343 -.00001682 00000+0 -60164-3 0 1764 2 43925 86.3984 240.4778 0002175 99.5188 31.7944 14.34214552 10 IRIDIUM 169 1 43926C 19002E 22176.81996049 -.00000486 00000+0 -15905-3 0 1769 2 43926 86.4230 272.0868 0006854 89.4991 72.6889 14.38607396 13 IRIDIUM 172 1 43927C 19002F 22176.83510903 -.00002037 00000+0 -72844-3 0 1762 2 43927 86.3984 240.4837 0002155 101.1884 33.1021 14.34216250 18 IRIDIUM 175 1 43928C 19002G 22176.84252210 -.00002193 00000+0 -34848-3 0 1763 2 43928 86.6121 240.3585 0002544 99.9889 25.7766 14.72246478 15 IRIDIUM 171 1 43929C 19002H 22176.81649497 -.00002572 00000+0 -91981-3 0 1760 2 43929 86.3994 240.6364 0002349 101.3601 35.0960 14.34216466 14 IRIDIUM 170 1 43930C 19002J 22176.85486502 -.00001342 00000+0 -21304-3 0 1768 2 43930 86.6119 240.5282 0002818 98.8589 26.8763 14.72266936 10 IRIDIUM 167 1 43931C 19002K 22176.81021339 -.00002446 00000+0 -87467-3 0 1766 2 43931 86.3986 240.5036 0002126 104.2285 32.6077 14.34215416 12